Wind_Speed
5 5 5 5 5 5 5 6 7 8 8 8 8 9 9 9 9 10 10 10 10 10 9 10 10 10 10 9 8 8 8 8 7 7 7 6 5 5 5 5 5 5 5
3 4 3 3 4 4 4 5 6 7 8 8 8 8 8 9 9 9 9 10 9 9 9 8 8 8 8 8 8 7 6 6 6 6 6 5 5 4 4 3 3 3 3
1 2 1 2 2 3 4 5 6 7 8 8 8 8 8 8 9 9 9 9 9 9 8 8 8 7 7 7 7 6 6 5 5 5 5 4 4 3 3 2 2 1 1
1 1 1 2 3 4 5 6 7 8 8 8 9 9 9 9 9 9 9 9 8 8 8 8 7 7 7 6 6 6 5 5 4 4 4 4 3 3 3 2 2 1 1
3 3 4 4 5 5 6 7 8 8 9 9 9 9 9 10 10 10 10 10 9 9 9 8 8 7 7 6 6 6 5 5 5 4 4 4 3 3 3 3 3 3 3
4 5 6 7 7 7 7 8 9 10 10 11 11 11 11 11 11 11 11 11 11 10 10 10 9 9 8 8 8 7 7 6 6 5 5 5 5 4 4 4 4 5 6
5 7 8 9 9 9 9 10 10 11 12 12 13 13 13 13 13 13 13 12 13 12 12 11 11 10 10 9 10 10 9 9 8 7 7 6 6 6 6 6 6 6 7
7 8 9 10 10 11 11 11 12 13 14 15 15 16 16 16 15 15 15 14 14 14 14 14 13 12 12 12 11 12 12 12 11 10 9 8 8 7 7 7 7 8 8
9 10 10 11 12 12 13 14 15 16 17 17 18 19 19 18 18 18 18 17 17 17 16 16 15 15 14 14 14 14 14 14 14 13 12 11 11 10 9 9 9 9 9
11 12 13 13 14 15 15 16 17 18 19 20 21 21 21 21 21 21 20 20 20 20 19 19 19 18 18 17 17 16 17 17 16 16 15 14 14 13 12 12 11 10 9
14 14 15 15 16 16 17 18 19 20 21 21 22 22 23 23 23 23 24 24 23 22 22 22 22 22 22 21 20 19 20 20 19 18 18 17 17 16 16 15 14 12 12
16 17 17 17 18 19 19 20 21 21 22 22 22 23 24 25 25 26 26 27 26 25 25 26 26 26 26 25 24 23 23 23 23 22 21 20 20 19 19 18 17 16 15
18 19 20 21 21 22 22 22 22 22 22 23 23 24 25 26 27 27 27 27 28 28 28 28 29 29 30 29 28 27 27 27 27 26 24 24 24 23 23 22 21 19 18
21 22 23 24 25 25 25 24 24 24 24 24 24 24 25 26 27 28 28 28 28 28 29 29 30 31 32 32 31 31 30 31 31 31 30 28 28 28 27 26 25 24 22
24 26 26 27 27 27 27 26 26 25 25 25 25 25 26 27 27 27 27 28 28 28 28 29 30 31 32 34 34 35 35 34 34 35 34 32 32 32 32 31 30 28 27
28 29 29 29 29 28 28 27 27 26 25 25 26 26 26 26 27 27 27 27 26 26 26 26 27 29 30 32 34 35 35 36 36 35 36 36 35 34 34 34 34 32 31
32 32 32 32 30 29 29 28 28 27 26 26 26 26 26 26 26 26 25 24 24 24 24 24 25 26 28 30 31 32 33 34 35 35 37 38 38 36 35 35 35 34 34
35 35 34 34 32 30 30 29 28 28 27 26 26 26 25 25 25 24 23 22 22 21 21 22 23 25 26 28 29 30 31 32 32 33 34 35 36 36 35 35 35 35 35
36 36 35 35 33 31 30 30 29 28 28 27 27 26 25 24 23 23 22 20 20 20 20 21 22 23 25 27 28 29 30 29 31 31 31 32 33 35 35 34 34 34 33
38 36 35 35 34 33 32 31 30 29 28 28 26 25 25 24 22 21 20 19 19 19 20 21 21 23 24 25 26 27 28 29 29 29 29 29 29 29 30 31 31 33 34
38 36 37 35 35 35 34 33 32 30 29 27 25 25 24 23 22 20 20 19 19 19 20 21 21 23 24 26 26 26 27 27 28 28 28 28 28 27 27 27 29 30 32
37 37 37 36 37 37 37 34 33 32 30 29 26 25 25 24 22 21 21 21 21 21 21 22 22 23 24 26 26 26 26 26 27 27 27 27 27 27 26 26 26 27 28
37 38 39 37 37 38 37 35 34 33 32 29 27 26 26 25 24 24 23 23 23 23 23 23 23 24 24 26 27 27 27 26 26 26 27 26 26 26 25 24 24 25 26
36 37 36 35 36 36 36 36 34 34 32 30 28 27 26 26 26 26 26 26 26 26 26 25 25 25 26 26 27 28 28 28 27 25 26 26 25 25 25 24 24 24 24
36 36 37 35 36 37 37 37 35 35 33 31 29 28 28 28 29 29 29 30 30 30 29 28 28 27 27 27 28 28 29 29 28 26 24 26 26 25 25 25 24 24 24
34 34 36 37 36 37 37 38 36 36 35 33 31 30 30 31 31 32 32 33 33 32 32 31 30 30 29 28 28 28 29 29 28 27 24 24 26 27 27 26 26 26 25
Wind_Direction
102 97 84 72 65 56 39 22 13 12 12 13 13 15 16 18 19 20 22 23 24 24 24 26 28 30 33 33 33 33 35 37 41 46 52 58 64 71 78 81 83 86 86
106 98 82 61 49 37 21 5 357 354 354 355 356 357 1 4 5 7 11 13 15 15 14 14 16 21 24 26 25 24 25 27 29 33 38 44 50 59 68 77 82 84 82
127 99 66 19 5 358 352 345 341 339 339 339 340 341 343 347 350 353 356 0 3 4 3 1 1 4 9 14 16 15 13 12 16 18 22 26 29 34 42 51 56 58 53
253 277 303 311 318 323 326 327 327 327 327 327 327 329 331 333 336 338 340 344 347 349 351 349 347 345 346 352 357 1 1 357 355 359 3 2 3 3 360 355 348 339 316
277 288 294 299 304 308 313 317 319 319 318 319 320 322 323 323 324 327 327 327 328 331 333 334 332 329 326 325 329 332 337 339 336 336 337 335 334 334 330 323 311 306 302
288 297 301 304 308 311 315 317 316 316 315 316 317 318 319 319 318 318 318 317 316 316 317 318 319 317 313 310 308 309 310 313 315 316 317 314 311 315 312 311 300 294 296
295 302 308 311 313 316 318 318 317 316 315 315 315 316 316 316 315 314 313 312 310 308 306 306 307 307 307 306 303 301 300 298 299 301 303 301 299 300 299 300 297 292 291
303 309 314 315 317 318 318 317 316 315 314 313 312 312 312 312 311 310 308 306 304 302 301 299 299 298 299 300 299 299 298 295 293 292 293 292 291 292 290 290 292 290 292
306 310 312 312 312 312 312 310 309 308 308 308 308 308 308 308 307 305 304 302 300 298 297 295 293 292 291 291 292 293 294 293 291 289 288 286 285 285 283 282 284 286 287
308 310 312 312 311 309 309 307 305 304 304 304 303 303 303 303 302 300 299 297 294 292 292 290 288 286 285 284 284 286 288 289 289 288 286 283 282 281 278 276 276 277 279
311 312 314 315 313 311 311 309 308 306 304 303 301 300 300 299 298 297 296 294 292 289 287 285 283 281 280 280 280 280 281 283 284 284 284 283 281 279 277 274 271 270 270
314 316 318 319 317 315 314 312 309 307 305 303 301 298 297 296 295 294 293 292 290 287 284 282 280 278 276 275 275 276 276 277 278 279 279 279 279 277 274 272 269 266 264
315 318 320 321 319 317 315 313 309 306 304 302 300 297 295 295 293 292 291 289 287 285 283 281 278 276 275 272 270 270 272 274 274 275 276 275 275 273 272 270 268 266 263
314 317 320 320 319 318 316 313 310 306 304 301 298 296 294 293 293 292 290 289 287 285 284 283 281 279 277 275 272 269 270 271 271 272 273 272 270 269 269 269 268 266 263
310 313 316 317 317 316 315 312 309 306 304 301 298 296 295 294 293 291 290 288 287 287 287 286 284 281 279 277 276 272 270 270 271 271 271 271 270 268 267 266 267 267 264
306 308 310 312 313 313 312 310 308 306 303 301 298 295 293 292 292 291 290 289 289 290 292 292 290 288 285 283 282 281 278 274 272 269 268 267 267 268 268 268 266 265 265
300 302 305 306 308 308 307 307 307 305 301 299 297 294 292 291 291 291 290 290 290 290 292 294 294 293 290 288 286 285 283 280 277 271 269 267 268 267 268 267 265 265 266
296 298 300 301 303 303 303 303 303 302 299 298 296 294 292 291 290 289 289 290 291 292 294 296 297 297 295 293 291 289 287 283 282 277 274 272 269 265 264 264 264 265 266
291 292 294 295 297 298 299 299 299 299 297 296 295 293 290 288 287 286 286 287 289 292 296 299 301 301 301 299 296 294 292 288 286 282 281 279 274 267 263 263 262 264 264
286 286 289 289 293 294 295 297 297 295 294 292 292 290 288 285 283 282 283 285 289 294 297 300 303 305 306 304 302 300 297 293 288 287 285 283 278 274 269 264 263 262 263
283 284 286 285 289 289 291 293 293 291 291 290 290 286 282 280 279 280 282 286 289 293 297 301 305 307 308 308 307 306 303 297 291 286 283 281 277 274 273 267 264 265 263
280 281 283 282 285 288 289 290 292 291 291 289 287 283 278 275 275 276 280 284 288 292 296 299 303 307 309 310 309 309 307 302 295 289 284 280 274 272 271 269 264 265 263
277 278 279 283 283 285 287 288 288 289 290 287 284 279 275 273 273 274 278 282 286 289 293 296 301 304 308 310 311 311 310 307 299 293 286 280 274 270 268 268 264 262 261
277 277 278 279 281 284 288 288 287 288 287 285 282 278 273 272 272 275 278 282 286 288 291 294 298 301 304 307 309 311 311 309 305 297 288 281 274 269 266 265 263 262 260
279 277 280 283 283 285 286 287 287 289 289 286 282 279 276 274 275 276 279 282 285 286 289 291 294 297 300 303 305 307 309 309 307 302 291 280 274 269 265 263 261 260 260
279 279 283 285 284 284 284 286 286 288 288 286 282 280 279 277 277 277 280 281 283 284 286 288 290 292 295 298 301 304 306 307 306 303 296 284 274 268 264 261 261 260 261
Height
5918 5918 5918 5918 5917 5917 5917 5916 5916 5915 5914 5913 5912 5911 5909 5908 5907 5906 5904 5903 5902 5901 5900 5899 5898 5897 5896 5895 5894 5894 5893 5893 5892 5892 5891 5891 5891 5891 5891 5891 5891 5891 5891
5919 5918 5918 5918 5918 5917 5917 5917 5916 5916 5915 5914 5913 5911 5910 5909 5908 5907 5905 5904 5903 5902 5901 5900 5899 5898 5897 5896 5895 5895 5894 5894 5893 5893 5893 5893 5892 5892 5892 5892 5892 5892 5893
5918 5918 5918 5918 5918 5918 5917 5917 5916 5915 5915 5914 5913 5912 5911 5910 5909 5907 5906 5905 5904 5903 5902 5901 5900 5899 5898 5897 5896 5895 5895 5894 5894 5894 5893 5893 5893 5893 5893 5893 5893 5893 5894
5918 5918 5918 5918 5918 5917 5917 5916 5916 5915 5914 5913 5913 5912 5911 5910 5909 5908 5906 5905 5904 5903 5902 5901 5900 5899 5899 5898 5897 5896 5895 5895 5894 5894 5894 5894 5894 5894 5894 5894 5894 5894 5894
5917 5917 5917 5917 5917 5916 5916 5915 5915 5914 5913 5913 5912 5911 5910 5909 5908 5907 5906 5905 5904 5903 5902 5901 5900 5899 5899 5898 5897 5897 5896 5895 5895 5894 5894 5894 5894 5894 5894 5894 5894 5894 5894
5916 5916 5916 5916 5916 5915 5915 5914 5914 5913 5912 5912 5911 5910 5909 5908 5907 5906 5905 5904 5903 5902 5901 5900 5900 5899 5898 5898 5897 5896 5896 5895 5895 5894 5894 5894 5894 5893 5893 5893 5893 5894 5894
5916 5916 5915 5915 5915 5914 5914 5913 5912 5912 5911 5911 5910 5909 5908 5907 5906 5905 5904 5903 5902 5901 5900 5899 5899 5898 5897 5897 5896 5896 5895 5895 5894 5894 5894 5894 5893 5893 5893 5893 5893 5893 5893
5915 5914 5914 5914 5913 5913 5912 5911 5911 5910 5909 5909 5908 5907 5905 5904 5903 5902 5901 5900 5900 5899 5898 5898 5897 5897 5896 5895 5895 5894 5894 5893 5893 5893 5893 5893 5893 5893 5893 5892 5892 5892 5892
5914 5913 5913 5912 5911 5911 5910 5909 5909 5908 5907 5906 5905 5904 5903 5901 5900 5899 5898 5898 5897 5896 5896 5895 5895 5894 5894 5893 5893 5892 5892 5891 5891 5891 5892 5892 5891 5891 5891 5891 5891 5891 5891
5912 5911 5910 5910 5909 5908 5907 5907 5906 5905 5904 5903 5902 5901 5899 5898 5897 5896 5895 5894 5893 5893 5892 5892 5891 5891 5891 5890 5890 5890 5889 5889 5889 5889 5889 5889 5889 5890 5890 5890 5890 5890 5890
5909 5908 5908 5907 5906 5905 5904 5903 5902 5901 5900 5899 5898 5897 5896 5894 5893 5892 5891 5890 5889 5888 5888 5887 5887 5887 5886 5886 5886 5886 5885 5885 5885 5885 5886 5886 5886 5887 5887 5887 5888 5888 5888
5906 5906 5905 5904 5903 5902 5901 5900 5898 5897 5896 5895 5893 5892 5891 5889 5888 5887 5886 5884 5884 5883 5882 5882 5882 5881 5881 5881 5881 5881 5881 5881 5881 5881 5882 5882 5882 5883 5883 5884 5884 5885 5885
5903 5903 5901 5901 5899 5898 5897 5896 5894 5893 5892 5890 5889 5887 5886 5884 5883 5881 5881 5879 5878 5877 5876 5876 5875 5875 5875 5875 5875 5875 5875 5875 5876 5876 5877 5877 5877 5878 5879 5879 5880 5881 5882
5901 5899 5898 5897 5895 5894 5893 5891 5890 5888 5887 5885 5884 5882 5880 5879 5877 5876 5874 5873 5872 5871 5871 5870 5869 5868 5868 5868 5868 5868 5869 5869 5869 5870 5871 5871 5871 5872 5873 5874 5875 5876 5877
5897 5896 5895 5893 5891 5890 5888 5886 5885 5883 5882 5880 5878 5876 5875 5873 5872 5870 5869 5867 5866 5865 5864 5864 5862 5861 5861 5860 5860 5860 5860 5861 5862 5862 5863 5864 5864 5865 5866 5867 5869 5870 5871
5891 5891 5889 5888 5886 5885 5883 5881 5880 5878 5876 5874 5873 5871 5869 5868 5866 5864 5863 5862 5860 5859 5858 5857 5856 5855 5854 5854 5853 5853 5853 5853 5853 5854 5854 5855 5855 5856 5858 5859 5861 5862 5864
5886 5885 5884 5882 5881 5879 5878 5876 5875 5873 5871 5869 5867 5866 5864 5862 5861 5859 5858 5857 5855 5854 5853 5852 5851 5849 5848 5847 5846 5846 5845 5845 5845 5845 5845 5845 5847 5847 5848 5850 5852 5854 5856
5880 5879 5877 5876 5875 5873 5872 5870 5869 5867 5865 5864 5862 5860 5859 5857 5856 5854 5853 5852 5851 5849 5848 5847 5845 5844 5842 5841 5839 5838 5838 5837 5837 5836 5837 5837 5838 5838 5840 5841 5843 5844 5846
5873 5871 5871 5869 5868 5867 5865 5864 5863 5861 5859 5857 5856 5855 5853 5852 5851 5850 5848 5847 5846 5845 5843 5842 5840 5839 5837 5835 5833 5831 5830 5830 5829 5829 5829 5829 5829 5830 5830 5832 5834 5835 5837
5865 5862 5862 5862 5861 5860 5858 5857 5856 5855 5853 5851 5850 5849 5848 5847 5846 5845 5843 5842 5841 5840 5838 5837 5835 5833 5831 5829 5827 5825 5824 5823 5822 5821 5821 5821 5821 5821 5820 5822 5825 5826 5828
5857 5853 5854 5853 5853 5852 5851 5849 5848 5847 5846 5845 5844 5843 5842 5842 5841 5840 5839 5838 5836 5835 5834 5832 5830 5828 5826 5823 5821 5820 5818 5816 5815 5814 5814 5813 5814 5814 5814 5815 5816 5818 5819
5849 5847 5845 5845 5846 5844 5843 5841 5841 5839 5839 5838 5838 5837 5836 5836 5835 5834 5833 5832 5831 5830 5828 5827 5825 5823 5820 5817 5815 5813 5812 5811 5808 5807 5806 5806 5806 5806 5807 5807 5808 5809 5811
5841 5840 5838 5839 5838 5836 5835 5833 5833 5833 5832 5832 5831 5831 5830 5830 5829 5828 5828 5827 5825 5824 5823 5821 5819 5817 5815 5812 5808 5806 5805 5804 5802 5800 5799 5798 5798 5799 5799 5800 5801 5803 5803
5834 5831 5829 5829 5830 5829 5827 5826 5826 5826 5825 5825 5824 5824 5823 5823 5823 5822 5821 5820 5819 5818 5817 5815 5813 5811 5809 5806 5803 5800 5798 5796 5794 5794 5792 5791 5791 5792 5793 5793 5794 5795 5796
5827 5824 5822 5821 5823 5823 5821 5820 5820 5819 5818 5817 5817 5816 5816 5816 5815 5815 5815 5814 5813 5812 5810 5808 5806 5804 5802 5800 5797 5794 5792 5789 5786 5786 5786 5784 5784 5785 5785 5786 5787 5789 5790
5821 5818 5817 5816 5816 5815 5814 5813 5811 5811 5810 5809 5808 5808 5808 5808 5807 5807 5807 5806 5805 5804 5803 5801 5799 5797 5795 5793 5791 5788 5786 5783 5780 5778 5778 5777 5777 5777 5778 5779 5780 5782 5783